This is the latest recevied weather packets stored in our database for station/object KD7CIH. If no packets are shown the sender has not sent any weather packets the latest 10 day(s).
| Time | Temp. | Humidity | Pressure | Rain* | Wind** | Luminosity | Snow |
|---|---|---|---|---|---|---|---|
| 1787759773 | 20° C | 46% | 1023.6 hPa | 0 mm | - | - | - |
| 1787759469 | 19.44° C | 46% | 1023.6 hPa | 0 mm | - | - | - |
| 1787759169 | 19.44° C | 46% | 1023.6 hPa | 0 mm | - | - | - |
| 1787758870 | 19.44° C | 46% | 1023.6 hPa | 0 mm | - | - | - |
| 1787758567 | 18.89° C | 47% | 1023.7 hPa | 0 mm | - | - | - |
| 1787758266 | 18.89° C | 46% | 1023.6 hPa | 0 mm | - | - | - |
| 1787758093 | 18.89° C | 49% | 1023.6 hPa | 0 mm | - | - | - |
| 1787757667 | 18.89° C | 50% | 1023.7 hPa | 0 mm | - | - | - |
| 1787757493 | 18.33° C | 52% | 1023.6 hPa | 0 mm | - | - | - |
| 1787757194 | 17.78° C | 53% | 1023.6 hPa | 0 mm | - | - | - |
| 1787756767 | 17.22° C | 57% | 1023.6 hPa | 0 mm | - | - | - |
| 1787756466 | 16.67° C | 59% | 1023.6 hPa | 0 mm | - | - | - |
| 1787756167 | 16.11° C | 61% | 1023.7 hPa | 0 mm | - | - | - |
| 1787755994 | 15.56° C | 62% | 1023.7 hPa | 0 mm | - | - | - |
| 1787755564 | 15.56° C | 62% | 1023.7 hPa | 0 mm | - | - | - |
| 1787755394 | 15° C | 64% | 1023.7 hPa | 0 mm | - | - | - |
| 1787754966 | 15° C | 64% | 1023.7 hPa | 0 mm | - | - | - |
| 1787754665 | 14.44° C | 66% | 1023.7 hPa | 0 mm | - | - | - |
| 1787754365 | 13.89° C | 67% | 1023.7 hPa | 0 mm | - | - | - |
| 1787754066 | 13.89° C | 68% | 1023.6 hPa | 0 mm | - | - | - |
| 1787753766 | 13.33° C | 69% | 1023.9 hPa | 0 mm | - | - | - |
| 1787753464 | 13.33° C | 71% | 1023.7 hPa | 0 mm | - | - | - |
| 1787753166 | 12.78° C | 72% | 1023.9 hPa | 0 mm | - | - | - |
| 1787752865 | 12.78° C | 72% | 1023.7 hPa | 0 mm | - | - | - |
| 1787752567 | 12.22° C | 73% | 1023.7 hPa | 0 mm | - | - | - |
* Rain latest hour (hover to see other rain measurements)
** Current wind speed in m/s (hover to see current wind gust speed)